When you browse on this site, cookies collect data to enhance your experience and personalize the content and advertising you see.
Visit our Privacy Policy to learn more. By continuing to use the site, you agree to this use of cookies and data.

Hourly Weather Gold Coast

Today, 4 August, Tuesday

Time Temperature Precipitation Wind Pressure Humidity
00:00 +13°C° 0 mm 2 mps 759 mmHg 89%
01:00 +13°C° 0 mm 2 mps 759 mmHg 90%
02:00 +12°C° 0 mm 2 mps 759 mmHg 90%
03:00 +12°C° 0 mm 2 mps 759 mmHg 91%
04:00 +12°C° 0 mm 2 mps 758 mmHg 92%
05:00 +12°C° 0 mm 2 mps 758 mmHg 92%
06:00 +12°C° 0 mm 2 mps 759 mmHg 91%
07:00 +12°C° 0 mm 2 mps 759 mmHg 91%
08:00 +15°C° 0 mm 2 mps 759 mmHg 76%
09:00 +18°C° 0 mm 3 mps 758 mmHg 62%
10:00 +21°C° 0 mm 2 mps 758 mmHg 50%
11:00 +22°C° 0 mm 3 mps 757 mmHg 47%
12:00 +24°C° 0 mm 3 mps 757 mmHg 43%
13:00 +24°C° 0 mm 3 mps 756 mmHg 40%
14:00 +24°C° 0 mm 3 mps 756 mmHg 42%
15:00 +22°C° 0 mm 4 mps 755 mmHg 45%
16:00 +22°C° 0 mm 4 mps 755 mmHg 48%
17:00 +20°C° 0 mm 3 mps 756 mmHg 56%
18:00 +18°C° 0 mm 3 mps 756 mmHg 63%
19:00 +16°C° 0 mm 3 mps 756 mmHg 71%
20:00 +14°C° 0 mm 3 mps 756 mmHg 73%
21:00 +14°C° 0 mm 3 mps 757 mmHg 76%
22:00 +13°C° 0 mm 3 mps 757 mmHg 78%
23:00 +13°C° 0 mm 3 mps 757 mmHg 79%

Tomorrow, 5 August, Wednesday

Time Temperature Precipitation Wind Pressure Humidity
00:00 +12°C° 0 mm 3 mps 757 mmHg 80%
01:00 +13°C° 0 mm 2 mps 757 mmHg 80%
02:00 +13°C° 0 mm 2 mps 756 mmHg 80%
03:00 +13°C° 0 mm 2 mps 756 mmHg 80%
04:00 +12°C° 0 mm 2 mps 756 mmHg 81%
05:00 +12°C° 0 mm 2 mps 756 mmHg 79%
06:00 +13°C° 0 mm 2 mps 757 mmHg 78%
07:00 +13°C° 0 mm 2 mps 757 mmHg 77%
08:00 +16°C° 0 mm 3 mps 757 mmHg 67%
09:00 +18°C° 0 mm 3 mps 757 mmHg 56%
10:00 +21°C° 0 mm 3 mps 757 mmHg 46%
11:00 +22°C° 0 mm 3 mps 756 mmHg 41%
12:00 +24°C° 0 mm 3 mps 756 mmHg 37%
13:00 +26°C° 0 mm 3 mps 755 mmHg 33%
14:00 +25°C° 0 mm 4 mps 755 mmHg 35%
15:00 +25°C° 0 mm 4 mps 755 mmHg 37%
16:00 +25°C° 0 mm 4 mps 755 mmHg 39%
17:00 +21°C° 0 mm 4 mps 755 mmHg 45%
18:00 +19°C° 0 mm 3 mps 756 mmHg 52%
19:00 +16°C° 0 mm 3 mps 757 mmHg 58%
20:00 +14°C° 0 mm 3 mps 757 mmHg 58%
21:00 +15°C° 0 mm 2 mps 757 mmHg 57%
22:00 +14°C° 0 mm 2 mps 757 mmHg 57%
23:00 +14°C° 0 mm 2 mps 757 mmHg 59%

Day after tomorrow, 6 August, Thursday

Time Temperature Precipitation Wind Pressure Humidity
00:00 +13°C° 0 mm 2 mps 757 mmHg 60%
01:00 +13°C° 0 mm 2 mps 757 mmHg 62%
02:00 +12°C° 0 mm 2 mps 757 mmHg 63%
03:00 +12°C° 0 mm 2 mps 757 mmHg 63%
04:00 +11°C° 0 mm 1 mps 757 mmHg 63%
05:00 +11°C° 0 mm 1 mps 758 mmHg 62%
06:00 +11°C° 0 mm 1 mps 758 mmHg 61%
07:00 +11°C° 0 mm 1 mps 759 mmHg 60%
08:00 +14°C° 0 mm 1 mps 759 mmHg 51%
09:00 +19°C° 0 mm 1 mps 759 mmHg 41%
10:00 +22°C° 0 mm 1 mps 759 mmHg 32%
11:00 +23°C° 0 mm 1 mps 759 mmHg 32%
12:00 +24°C° 0 mm 2 mps 758 mmHg 31%
13:00 +24°C° 0 mm 2 mps 758 mmHg 31%
14:00 +22°C° 0 mm 3 mps 758 mmHg 38%
15:00 +21°C° 0 mm 3 mps 758 mmHg 45%
16:00 +19°C° 0 mm 3 mps 758 mmHg 53%
17:00 +17°C° 0 mm 3 mps 758 mmHg 62%
18:00 +15°C° 0 mm 2 mps 759 mmHg 71%
19:00 +13°C° 0 mm 2 mps 759 mmHg 80%
20:00 +13°C° 0 mm 2 mps 760 mmHg 81%
21:00 +12°C° 0 mm 2 mps 760 mmHg 81%
22:00 +12°C° 0 mm 2 mps 760 mmHg 82%
23:00 +12°C° 0 mm 2 mps 760 mmHg 80%

7 August, Friday

Time Temperature Precipitation Wind Pressure Humidity
00:00 +12°C° 0 mm 2 mps 760 mmHg 79%
01:00 +12°C° 0 mm 2 mps 761 mmHg 78%
02:00 +12°C° 0 mm 3 mps 760 mmHg 78%
03:00 +12°C° 0 mm 3 mps 760 mmHg 77%
04:00 +12°C° 0 mm 3 mps 760 mmHg 77%
05:00 +13°C° 0.1 mm 3 mps 760 mmHg 78%
06:00 +13°C° 0.1 mm 3 mps 760 mmHg 80%
07:00 +13°C° 0.1 mm 3 mps 761 mmHg 81%
08:00 +15°C° 0.1 mm 4 mps 761 mmHg 79%
09:00 +17°C° 0.1 mm 4 mps 760 mmHg 77%
10:00 +17°C° 0.1 mm 5 mps 760 mmHg 75%
11:00 +19°C° 0.1 mm 5 mps 760 mmHg 73%
12:00 +19°C° 0.1 mm 6 mps 759 mmHg 70%
13:00 +20°C° 0.1 mm 6 mps 758 mmHg 68%
14:00 +19°C° 0.8 mm 6 mps 758 mmHg 76%
15:00 +17°C° 0.8 mm 5 mps 758 mmHg 85%
16:00 +15°C° 0.8 mm 5 mps 758 mmHg 93%
17:00 +15°C° 1.6 mm 5 mps 758 mmHg 94%
18:00 +15°C° 1.6 mm 5 mps 759 mmHg 95%
19:00 +15°C° 1.6 mm 5 mps 759 mmHg 96%
20:00 +15°C° 2 mm 4 mps 759 mmHg 97%
21:00 +15°C° 2 mm 4 mps 759 mmHg 97%
22:00 +16°C° 2 mm 3 mps 759 mmHg 98%
23:00 +17°C° 1.1 mm 4 mps 759 mmHg 98%

8 August, Saturday

Time Temperature Precipitation Wind Pressure Humidity
00:00 +17°C° 1.1 mm 4 mps 759 mmHg 98%
01:00 +17°C° 1.1 mm 4 mps 758 mmHg 98%
02:00 +17°C° 1.2 mm 3 mps 758 mmHg 98%
03:00 +17°C° 1.2 mm 3 mps 757 mmHg 98%
04:00 +17°C° 1.2 mm 2 mps 757 mmHg 98%
05:00 +18°C° 0.2 mm 1 mps 757 mmHg 98%
06:00 +18°C° 0.2 mm 1 mps 757 mmHg 98%
07:00 +16°C° 0.2 mm 1 mps 757 mmHg 98%
08:00 +19°C° 0 mm 1 mps 757 mmHg 92%
09:00 +21°C° 0 mm 1 mps 757 mmHg 86%
10:00 +23°C° 0 mm 1 mps 757 mmHg 81%
11:00 +23°C° 0 mm 1 mps 756 mmHg 75%
12:00 +24°C° 0 mm 1 mps 756 mmHg 70%
13:00 +25°C° 0 mm 1 mps 755 mmHg 65%
14:00 +24°C° 0 mm 1 mps 754 mmHg 65%
15:00 +24°C° 0 mm 2 mps 754 mmHg 66%
16:00 +24°C° 0 mm 2 mps 754 mmHg 67%
17:00 +21°C° 0 mm 2 mps 754 mmHg 75%
18:00 +19°C° 0 mm 2 mps 754 mmHg 84%
19:00 +17°C° 0 mm 2 mps 755 mmHg 92%
20:00 +17°C° 0.2 mm 2 mps 755 mmHg 92%
21:00 +17°C° 0.2 mm 2 mps 755 mmHg 92%
22:00 +17°C° 0.2 mm 2 mps 755 mmHg 92%
23:00 +16°C° 0 mm 2 mps 754 mmHg 91%

9 August, Sunday

Time Temperature Precipitation Wind Pressure Humidity
00:00 +16°C° 0 mm 2 mps 754 mmHg 90%
01:00 +16°C° 0 mm 2 mps 754 mmHg 90%
02:00 +15°C° 0 mm 2 mps 754 mmHg 88%
03:00 +14°C° 0 mm 2 mps 754 mmHg 86%
04:00 +13°C° 0 mm 3 mps 753 mmHg 83%
05:00 +12°C° 0 mm 3 mps 754 mmHg 84%
06:00 +12°C° 0 mm 3 mps 754 mmHg 84%
07:00 +12°C° 0 mm 3 mps 754 mmHg 84%
08:00 +14°C° 0 mm 3 mps 755 mmHg 71%
09:00 +17°C° 0 mm 3 mps 755 mmHg 58%
10:00 +19°C° 0 mm 3 mps 755 mmHg 46%
11:00 +20°C° 0 mm 3 mps 754 mmHg 42%
12:00 +20°C° 0 mm 4 mps 753 mmHg 38%
13:00 +21°C° 0 mm 4 mps 752 mmHg 34%
14:00 +20°C° 0 mm 4 mps 752 mmHg 36%
15:00 +20°C° 0 mm 4 mps 752 mmHg 39%
16:00 +19°C° 0 mm 4 mps 752 mmHg 42%
17:00 +17°C° 0 mm 4 mps 752 mmHg 48%
18:00 +14°C° 0 mm 4 mps 753 mmHg 54%
19:00 +12°C° 0 mm 4 mps 753 mmHg 61%
20:00 +11°C° 0 mm 4 mps 753 mmHg 64%
21:00 +10°C° 0 mm 3 mps 753 mmHg 67%
22:00 +9°C° 0 mm 3 mps 753 mmHg 70%
23:00 +9°C° 0 mm 3 mps 753 mmHg 73%
Show more